Dewpoint
59 58 57 58 58 58 60 59 58 58 58 59 59 57 56 57 52 58 59 57 58 58 56 56 56 55 56 55 54 54 53 53 53
59 58 58 59 59 59 58 60 59 59 58 58 59 58 59 54 51 56 57 55 60 58 57 57 56 55 55 55 54 53 53 53 52
59 61 59 60 60 60 59 58 59 60 60 60 61 61 61 55 50 53 56 57 60 59 59 58 57 56 54 56 55 54 53 53 52
59 61 60 61 62 62 61 60 59 59 60 60 60 63 62 56 52 52 55 58 61 59 58 58 58 57 56 55 56 55 55 54 53
62 64 63 62 63 63 62 61 59 58 59 60 61 62 63 57 53 50 54 59 62 59 59 58 58 58 58 56 55 55 55 55 55
61 63 64 63 63 63 63 62 60 60 60 61 62 62 59 56 53 49 53 59 62 60 59 59 58 58 58 58 57 56 55 55 55
59 61 64 63 63 64 63 62 61 60 55 56 60 59 57 55 53 51 54 57 61 61 60 60 58 57 57 58 57 57 57 57 57
58 58 58 60 61 61 61 60 58 54 54 54 53 52 53 54 53 52 55 57 59 62 61 61 60 58 57 57 57 57 57 57 57
56 56 56 57 59 58 57 56 56 54 52 51 51 49 48 49 50 51 55 56 57 59 61 62 61 60 59 58 57 57 58 58 58
56 56 56 56 57 57 56 55 55 54 53 52 51 50 47 46 47 48 52 54 56 57 59 62 62 61 61 60 59 60 59 58 59
56 55 56 56 56 57 57 56 55 54 53 53 51 49 46 45 46 47 48 54 56 56 58 58 60 60 61 62 63 63 63 61 61
57 55 54 55 56 56 56 55 54 53 53 52 51 49 47 45 43 42 41 43 52 55 56 57 60 62 60 60 63 64 64 64 64
56 55 55 54 53 53 53 53 53 52 52 51 50 49 49 47 45 43 42 41 40 45 52 57 59 61 61 57 59 62 62 63 63
55 55 55 54 53 52 52 52 51 51 51 51 50 50 49 49 49 48 47 45 44 42 47 52 55 58 59 58 57 60 60 60 62
54 54 54 54 54 53 53 52 52 52 51 51 51 52 52 52 51 51 50 49 47 44 43 44 45 53 56 58 58 60 60 59 60
54 54 54 54 54 54 54 53 52 52 52 52 52 52 52 52 52 52 52 52 51 50 46 45 44 45 53 55 57 59 61 60 60
57 56 56 56 55 55 55 54 54 53 53 52 53 52 52 53 52 53 52 52 52 52 51 49 46 45 46 46 53 56 58 58 61
57 58 58 58 57 56 56 56 55 54 55 53 53 52 51 51 51 51 53 52 53 52 52 51 49 48 47 48 49 52 54 56 58
48 49 51 53 57 58 57 57 56 56 55 56 55 54 55 53 52 53 52 52 52 52 52 52 51 50 50 51 51 52 54 55 58
45 45 45 46 46 47 50 56 58 59 57 57 57 57 55 55 54 52 53 54 52 52 52 52 52 52 52 52 52 54 56 57 58
Lifted_Index
8 8 9 9 8 8 8 8 8 8 7 7 7 7 8 8 8 7 7 7 7 8 8 8 9 9 9 9 9 10 10 10 10
8 8 8 8 8 8 8 8 8 7 7 7 7 7 8 8 8 7 7 7 7 7 8 8 8 9 9 9 9 10 10 10 10
7 8 8 8 7 7 8 8 8 7 7 7 6 6 7 8 8 7 7 7 7 7 7 8 8 9 9 9 9 9 10 10 10
7 7 7 7 7 6 7 7 8 8 7 7 7 6 7 8 8 8 7 7 7 7 7 8 8 8 9 9 9 9 9 9 9
7 7 6 6 6 6 6 7 7 8 8 7 7 6 7 8 9 9 8 7 7 7 7 8 8 8 8 9 9 9 9 9 9
7 7 6 6 6 6 6 7 7 8 8 8 7 7 7 8 9 10 9 8 7 7 7 8 8 8 8 8 8 8 8 8 8
7 7 7 6 6 6 6 6 7 8 9 10 9 8 8 9 10 10 10 9 8 6 6 7 7 8 8 8 8 8 8 7 7
8 8 8 7 7 6 6 7 7 9 10 11 11 10 10 10 11 11 11 10 8 7 6 6 7 7 8 8 8 7 7 7 6
8 8 8 8 8 8 7 7 8 9 11 12 12 12 12 12 13 13 12 11 10 8 7 6 6 6 7 7 7 7 6 6 6
7 8 8 8 8 8 8 8 9 9 10 11 12 13 13 14 14 14 13 12 11 9 8 6 5 5 5 5 5 5 5 5 5
7 7 7 7 8 8 8 8 9 9 9 10 11 11 12 13 13 13 13 12 11 10 9 7 6 5 4 4 3 3 3 3 3
7 7 7 7 7 8 8 8 8 8 9 9 9 9 10 10 11 11 11 11 11 10 9 8 7 5 4 4 3 2 1 1 1
6 6 6 6 6 7 7 7 7 7 7 8 8 8 8 8 8 8 8 9 9 9 9 8 7 5 5 5 4 3 1 1 0
5 5 5 5 5 5 5 5 6 6 6 6 6 6 6 6 6 6 6 6 6 6 6 7 6 6 5 5 5 3 2 1 1
4 4 3 4 4 4 4 4 4 4 4 5 5 5 5 5 4 4 4 4 4 4 4 5 5 5 5 5 4 3 2 1 1
3 3 3 3 4 4 4 4 4 3 3 4 4 4 4 4 4 3 3 3 3 3 3 3 4 4 4 4 4 3 2 1 1
4 4 4 4 4 4 4 4 3 3 3 3 4 4 5 4 4 3 3 3 3 2 2 2 3 3 3 3 3 3 2 2 1
5 5 5 5 5 4 4 4 4 3 3 3 3 4 4 4 4 4 3 3 2 2 1 1 1 1 1 1 1 2 2 2 2
8 7 7 7 7 6 6 5 4 4 4 3 3 3 3 4 4 4 3 2 2 1 1 0 0 -0 -0 0 0 1 1 2 2
10 10 9 9 9 8 7 6 5 4 4 4 3 3 3 3 3 4 3 3 2 1 1 0 0 -0 -0 -0 -0 0 0 1 2